Content
SEND FEEDBACK

Daily
Averages
Monthly
Summary
Canada

CHARLOTTETOWN, PRINCE EDWARD ISLAND


Home > North America > Canada > Prince Edward Island
Elevation: 181 feet     Latitude: 46 17N     Longitude: 063 08W

WEATHER
 
SELECT A DAY
Number of Records: 199,950;   Date Range: 1/1/95 - 12/17/14
 
SHARE

PRINT THIS DATA

[ ← Previous Day ]
WEATHER ALMANAC - MARCH 15, 2013
[ Next Day → ]
[ °C ]   °F
Weather ElementAverageHighLow
Temperature28 °F32 °F (12:00 pm)26 °F (9:00 pm)
Dewpoint24.5 °F28.4 °F (1:00 am)23 °F (5:00 am)
Humidity86.6 %93 % (1:00 am)71 % (9:00 am)
Barometer29.56 in29.60 in (2:00 am)29.52 in (6:00 pm)
Wind Speed8.1 mph12.7 mph (1:00 pm)
Weather ElementAverage
Visibility8.8 mi
Wind DirectionWNW (300.3 °)

Weather ElementTotal
Precipitation---
Heating Degree Days36 (Base 65)
Averaged from 32 records on March 15, 2013
WEATHER CONDITIONS BREAKOUT
WIND DIRECTION BREAKOUT
WEATHER BY HOUR - MARCH 15, 2013
[ °C ]   °F
Local TimeTemperatureDewpointHumidityBarometerVisibilityWind DirectionWind SpeedGust SpeedPrecipitationEventsConditions
1:00 AM30.2 °F28.4 °F93 %29.59 in15.0 miWest (270°)3.5 mphMostly Cloudy
2:00 AM30.2 °F28.4 °F93 %29.60 in15.0 miCalmMostly Cloudy
3:00 AM29.0 °F26.0 °F86 %29.60 in15.0 miNorth5.8 mphPartly Cloudy
3:00 AM28.4 °F26.6 °F93 %29.59 in15.0 miNorth (360°)6.9 mphScattered Clouds
4:00 AM28.4 °F24.8 °F86 %29.58 in15.0 miNorth (360°)8.1 mphMostly Cloudy
5:00 AM28.4 °F23.0 °F80 %29.57 in15.0 miNorth (10°)10.4 mphOvercast
6:00 AM28.4 °F23.0 °F80 %29.58 in15.0 miNNE (20°)9.2 mphOvercast
7:00 AM28.4 °F23.0 °F80 %29.57 in15.0 miNorth (360°)6.9 mphMostly Cloudy
8:00 AM28.4 °F23.0 °F80 %29.58 in15.0 miNorth (350°)5.8 mphMostly Cloudy
9:00 AM29.0 °F23.0 °F71 %29.58 in15.0 miNorth (350°)5.8 mphPartly Cloudy
9:00 AM30.2 °F23.0 °F75 %29.58 in15.0 miNorth (360°)8.1 mphMostly Cloudy
10:00 AM30.2 °F23.0 °F75 %29.58 in15.0 miNorth (360°)10.4 mphOvercast
11:00 AM30.2 °F23.0 °F75 %29.59 in15.0 miNorth (350°)9.2 mphOvercast
12:00 PM32.0 °F24.8 °F75 %29.58 in15.0 miNorth (350°)9.2 mphMostly Cloudy
1:00 PM30.2 °F23.0 °F75 %29.57 in15.0 miNorth (360°)12.7 mphOvercast
2:00 PM28.4 °F23.0 °F80 %29.56 in15.0 miNorth (360°)12.7 mphOvercast
2:16 PM26.6 °F23.0 °F86 %29.55 in6.0 miNorth (350°)12.7 mphSnowLight Snow Showers
2:38 PM26.6 °F24.8 °F93 %29.55 in2.0 miNNW (340°)10.4 mphSnowLight Snow
3:00 PM27.0 °F24.0 °F85 %29.54 in2.0 miNNW (340°)10.4 mphSnowLight Snow
3:00 PM26.6 °F24.8 °F93 %29.54 in2.0 miNorth (350°)9.2 mphSnowLight Snow
4:00 PM26.6 °F24.8 °F93 %29.54 in2.0 miNorth (350°)10.4 mphSnowLight Snow
5:00 PM26.6 °F24.8 °F93 %29.53 in1.5 miNorth (360°)9.2 mphSnowLight Snow
6:00 PM26.6 °F24.8 °F93 %29.52 in2.0 miNorth (350°)9.2 mphSnowLight Snow
7:00 PM26.6 °F24.8 °F93 %29.53 in2.0 miNNW (340°)8.1 mphSnowLight Snow
8:00 PM26.6 °F24.8 °F93 %29.54 in2.0 miNNW (330°)6.9 mphSnowLight Snow
9:00 PM26.0 °F25.0 °F93 %29.54 in2.0 miNNW (330°)6.9 mphSnowLight Snow
9:00 PM26.6 °F24.8 °F93 %29.54 in2.0 miNNW (330°)5.8 mphSnowLight Snow
10:00 PM26.6 °F24.8 °F93 %29.54 in6.0 miNW (320°)8.1 mphSnowLight Snow
10:16 PM26.6 °F24.8 °F93 %29.54 in2.0 miNNW (330°)8.1 mphSnowLight Snow
10:25 PM26.6 °F24.8 °F93 %29.54 in1.5 miNW (320°)6.9 mphSnowLight Snow
11:00 PM26.6 °F24.8 °F93 %29.54 in2.5 miNNW (330°)5.8 mphSnowLight Snow
11:44 PM26.6 °F24.8 °F93 %29.53 in3.0 miNW (320°)6.9 mphSnowLight Snow
Hourly data recorded from CYYG, located miles away from Charlottetown, Prince Edward Island







STORIES FROM OUR PARTNERS